Weather in Yel'niki

Russia / Krasnoyarsk Krai     55°44′31″N   96°25′03″E
temp.,
°C
wind,
m/s
gust,
m/s
humid.,
%
clouds,
%
prec.,
mm/h
press.,
hPa
HPBL,
m
26 july, mon
mon2601:00+17e257022 0.0 100687
04:00+16e287047 0.0 1005126
07:00+20ese296413 0.0 1005237
10:00+27ese48375 0.0 10041179
13:00+29e56301 0.0 10022090
16:00+30e563099 0.0 10012253
19:00+26e410465 0.0 1001437
22:00+21se413535 0.0 1001310
27 july, tue
tue2701:00+18se22615 0.0 100116
04:00+16sse11673 0.0 100111
07:00+19s23630 0.0 1001152
10:00+26sse11471 0.0 1000651
13:00+29w224011 0.1 9991904
16:00+23w5775100 1.9 1001770
19:00+18w3898100 5.0 1003351
22:00+17wnw379994 0.6 1004317
28 july, wed
wed2801:00+17wnw2699100 0.8 1005294
04:00+14nw3898100 0.4 1006397
07:00+12nw3798100 2.4 1008464
10:00+12nw2597100 4.6 1009433
13:00+12wnw2496100 9.9 1009390
16:00+11w2598100 1.8 1009298
19:00+11wsw3799100 5.6 1009372
22:00+11w3899100 2.8 1009418
29 july, thu
thu2901:00+12w3699100 15.2 1009439
04:00+10wnw41098100 7.4 1010504
07:00+10w3899100 14.0 1011464
10:00+11wsw3798100 0.6 1011445
13:00+14w3685100 0.6 1011686
16:00+17nw3463100 0.1 10111350
19:00+15nnw0083100 0.5 101242
22:00+11sse11925 0.1 101210
30 july, fri
fri3001:00+9ssw22945 0.1 101314
04:00+9s11955 0.0 101311
07:00+13s12855 0.0 1013117
10:00+20sse11495 0.0 10121103
13:00+22n114093 0.0 10112190
16:00+21nne2243100 0.0 10111866
19:00+18nne2470100 0.0 1012117
22:00+13ese1176100 0.0 101310